Location: Caualo
(45.5667°N, 10.8667°E)
Time: 02:30:08
(UTC+00:00)

STARLINK-1277 - Pass Details

Date: 07 June 2020
Orbit: 548 x 550 km, 53.0° (Epoch: 05 July)

Event Time Altitude Azimuth Distance (km) Brightness Sun altitude
Exits shadow 02:25:32 - 261° (W) 2,070 6.1 -9.2°
Reaches altitude 10° 02:26:11 10° 263° (W) 1,820 5.8 -9.1°
Maximum altitude 02:30:11 47° 338° (NNW) 734 4.4 -8.6°
Drops below altitude 10° 02:34:12 10° 53° (NE) 1,826 8.0 -8.1°
Sets 02:36:30 0° 59° (ENE) 2,722 9.1 -7.8°
